Regional Weather Roundup
Issued by NWS

Home | Current Version | Previous Version | Text Only | Print | Product List | Glossary On
Versions: 1 2 3 4 5 6 7 8 9 10 11 12 13 14 15 16 17 18 19 20 21 22 23 24 25 26 27 28 29 30 31 32 33 34 35 36 37 38 39 40 41 42 43 44 45 46 47 48 49 50
000
ASUS43 KMKX 311621
RWRWI

WISCONSIN REGIONAL WEATHER ROUNDUP
NATIONAL WEATHER SERVICE MILWAUKEE/SULLIVAN WI
1100 AM CDT FRI JUL 31 2015

NOTE: "FAIR" INDICATES FEW OR NO CLOUDS BELOW 12,000 FEET WITH NO
SIGNIFICANT WEATHER AND/OR OBSTRUCTIONS TO VISIBILITY.

WIZ001-002-006>008-014>016-023>028-311700-
NORTHWEST WISCONSIN

CITY           SKY/WX    TMP DP  RH WIND       PRES   REMARKS
SUPERIOR ARPT  SUNNY     73  56  53 NW17G23   29.98S
ASHLAND        SUNNY     74  55  51 W16G22    29.96S
HAYWARD        SUNNY     74  51  44 MISG      30.00S
SIREN          SUNNY     73  55  52 NW13G20   30.03S
CUMBERLAND     SUNNY     70  52  52 NW15G23   30.03S
RICE LAKE      SUNNY     72  54  53 W13G21    30.04S
CHETEK         SUNNY     74  56  53 W8G21     30.02F
LADYSMITH      SUNNY     74  53  46 NW20      30.02S
EAU CLAIRE     SUNNY     76  53  44 NW16G25   30.02S
MENOMONIE      SUNNY     76  52  42 W15       30.04S
NEW RICHMOND   SUNNY     74  53  47 W17       30.06S
OSCEOLA        SUNNY     74  53  48 NW14G26   30.07F
$$

WIZ003>005-009-010-017-018-311700-
NORTH CENTRAL WISCONSIN

CITY           SKY/WX    TMP DP  RH WIND       PRES   REMARKS
MANITOWISH WTR MOSUNNY   71  55  58 NW16G23   29.95S
ARBOR VITAE    MOSUNNY   72  55  54 NW15G21   29.96S
WOODRUFF       MOSUNNY   72  55  54 NW15G21   29.96S
RHINELANDER    MOSUNNY   73  53  49 NW13G21   29.97R
EAGLE RIVER    MOSUNNY   71  52  51 NW9G20    29.94S
LAND O LAKES   MOSUNNY   71  52  50 W12G18    29.94S
PHILLIPS       MOSUNNY   72  55  56 W13       29.97F
TOMAHAWK       MOSUNNY   71  54  53 NW15G21   29.98S
MEDFORD        MOSUNNY   71  54  55 W14G25    30.00S
MERRILL        NOT AVBL
$$

WIZ029-030-035-036-043>047-311700-
CENTRAL WISCONSIN

CITY           SKY/WX    TMP DP  RH WIND       PRES   REMARKS
WAUSAU         MOSUNNY   76  52  43 NW20G28   29.96S
MOSINEE        MOSUNNY   73  54  49 NW18G26   29.99S
MARSHFIELD     SUNNY     75  51  43 NW20G29   30.01S
STEVENS POINT  MOSUNNY   73  53  49 W13G18    29.98S
WAUPACA        MOSUNNY   79  51  37 W18       29.96S
WAUTOMA        MOSUNNY   80  50  35 NW20G25   29.98F
WISC RAPIDS    MOSUNNY   77  51  40 NW21G28   30.01R
CAMP DOUGLAS   MOSUNNY   77  55  47 W17G29    30.01F
$$

WIZ011>013-019>022-031-037>040-048>050-311700-
NORTHEAST WISCONSIN

CITY           SKY/WX    TMP DP  RH WIND       PRES   REMARKS
ANTIGO         SUNNY     72  55  54 W21G28    29.96S
SHAWANO        MOSUNNY   78  56  47 W13G22    29.93S
OCONTO         SUNNY     78  56  46 NW13G21   29.89S
STURGEON BAY   MOSUNNY   75  57  53 W10G18    29.91F
GREEN BAY      SUNNY     77  60  55 NW16      29.92R
MANITOWOC      SUNNY     79  57  46 MISG      29.91S HX  80
APPLETON       PTSUNNY   75  55  50 W18G24    29.95S
CLINTONVILLE   MOSUNNY   77  54  44 NW16G22   29.93F
OSHKOSH        SUNNY     78  53  41 NW21G30   29.95S
$$

WIZ032>034-041-042-053>061-311700-
SOUTHWEST WISCONSIN

CITY           SKY/WX    TMP DP  RH WIND       PRES   REMARKS
LA CROSSE      SUNNY     79  55  43 NW10      30.04F
SPARTA         SUNNY     78  50  37 W13G18    30.04F
VIROQUA        SUNNY     74  53  47 W14G22    30.07S
BOSCOBEL       SUNNY     82  53  36 NW17G23   30.06R HX  81
PRAIRIE DU CHI SUNNY     81  49  33 NW13G21   30.06S HX  80
PLATTEVILLE    SUNNY     79  60  52 NW13      30.07S HX  80
$$

WIZ056-057-062-063-064-067-068-311700-
SOUTH CENTRAL WISCONSIN

CITY           SKY/WX    TMP DP  RH WIND       PRES   REMARKS
REEDSBURG      SUNNY     78  53  41 W15G23    30.02S
BARABOO/DELLS  SUNNY     79  47  32 W15G23    30.02S
LONE ROCK      SUNNY     80  50  34 NW18G28   30.04S HX  80
MINERAL POINT  SUNNY     79  52  38 NW14G21   30.06F
MADISON        MOSUNNY   79  51  37 NW14G26   30.00F
MIDDLETON      SUNNY     80  46  29 W17G28    30.02S
WATERTOWN      SUNNY     79  56  45 W15G24    29.98S HX  80
MONROE         SUNNY     79  59  50 W16G23    30.04S HX  80
JANESVILLE     SUNNY     82  59  44 W17G23    30.01S HX  82
$$

WIZ051-052-058>065-066-070>072-311700-
SOUTHEAST WISCONSIN

CITY           SKY/WX    TMP DP  RH WIND       PRES   REMARKS
MILWAUKEE      MOSUNNY   83  51  33 W21G29    29.96F HX  81
WAUKESHA       SUNNY     81  55  41 W15G21    29.98F HX  80
MILWAUKEE/TIMM SUNNY     81  52  36 W20G26    29.97S HX  80
RACINE         SUNNY     82  55  39 NW10G26   29.98F HX  81
BURLINGTON     SUNNY     80  53  38 W18       29.99S HX  80
KENOSHA        SUNNY     82  58  43 W15G24    29.98F HX  82
FOND DU LAC    MOSUNNY   79  54  41 NW18G28   29.96S
SHEBOYGAN      SUNNY     79  54  41 W20G29    29.93S
WEST BEND      SUNNY     79  46  31 W21G26    29.96S
JUNEAU         SUNNY     76  53  45 W13G22    29.99S
$$

LSZ147-162-311700-
LAKE SUPERIOR

STATION/POSITION TIME  TEMP    WIND        PRES    WAVE
                       AIR SEA DIR/SP/G            HT/PER
                 (UTC) (F)     (DEG/KT/KT) (MB)    (FT/S)
W MID LAKE BUOY  1550   58 53  240/ 16/ 17 1012.0R   2/ 3
DEVILS ISLAND    1600   61     250/ 17/ 20 1013.6R
PORT WING        1540   68     260/ 14/ 20 1014.9R
SAXON HARBOR     1500   67                 1013.5S
$$

LMZ867-665-643>646-311700-
LAKE MICHIGAN

STATION/POSITION TIME  TEMP    WIND        PRES    WAVE
                       AIR SEA DIR/SP/G            HT/PER
                 (UTC) (F)     (DEG/KT/KT) (MB)    (FT/S)
CHAMBERS ISLAND  1500   74     290/  4/  7 1011.5S
S GREEN BAY BUOY 1600   70 70  270/  8/ 10 1013.8R
N MID LAKE BUOY  1550   68 68  260/ 10/ 12 1010.5S   2/ 4
NORTHPORT PIER   1500   71     310/  7/ 14 1011.2S
ALGOMA LAKESHORE 1512          280/  8/ 15   N/A
KEWAUNEE LAKESHO 1600   76     290/  7/ 16 1011.8R
SHEBOYGAN LAKESH 1600   77     270/ 19/ 24 1013.2F
PORT WASHINGTON  1540   81     290/ 13/ 21 1014.2F
ATWATER BUOY     1600   76 63  260/ 17/ 23 1015.6F
MILWAUKEE LAKESH 1600   79     280/ 18/ 25   N/A
KENOSHA   LAKESH 1600   81     290/ 12/ 26 1014.2F
$$

TC  - TEMPERATURE IN CELSIUS
VSB - VISIBILITY IN STATUTE MILES
WCI - WIND CHILL INDEX
HX  - HEAT INDEX



USA.gov is the U.S. government's official web portal to all federal, state and local government web resources and services.